Retour au catalogue

GEESAT 6-06

ActifScienceLEO
NORAD 65718·PAYLOAD·🇨🇳 China

Lancé Sep 24, 2025 depuis Yellow Sea Launch Area

Loading…

Prochains Passages (prochaines 24 heures)

TLE

FraisSource: Space-Track

Époque: Sep 14, 2026, 08:43 UTC

1 65718U 25214G   26257.36369878  .00001030  00000-0  15331-3 0  9993
2 65718  49.9888 253.1202 0008450 215.6282 144.4093 14.82863243 52770

Suivez GEESAT 6-06 en temps réel avec AllMySat

Download on the App Store